Tracking 18852 objects as of 23-Nov-2017
HD Live streaming from Space Station
objects crossing your sky now

GLOBALSTAR M077

Track GLOBALSTAR M077 now!
10-day predictions
GLOBALSTAR M077 is classified as:


NORAD ID: 37191
Int'l Code: 2010-054D
Perigee: 1,420.0 km
Apogee: 1,421.5 km
Inclination: 52.0 °
Period: 114.1 minutes
Semi major axis: 7791 km
RCS: 4.923 m2 (large)
Launch date: October 19, 2010
Source: Globalstar (GLOB)
Launch site: TYURATAM MISSILE AND SPACE COMPLEX (TTMTR)
aabbcc
Your satellite tracking list
Your tracking list is empty




NASA's NSSDC Master Catalog

Two Line Element Set (TLE):
1 37191U 10054D   17326.31916807 -.00000079 +00000-0 +13827-3 0  9996
2 37191 052.0068 229.2127 0000979 049.4166 109.9021 12.62266364328377
Source of the keplerian elements: AFSPC